Location: Moscow
(55.7500°N, 37.5830°E)
Time: 10:12:41
(UTC+03:00)

Explorer 7 - Pass Details

Date: 09 December 2021
Orbit: 483 x 674 km, 50.3° (Epoch: 19 January)

Event Time Altitude Azimuth Distance (km) Brightness Sun altitude
Rises 10:17:26 0° 271° (W) 2,695 10.0 7.1°
Reaches altitude 10° 10:21:19 10° 234° (SW) 1,748 9.5 7.3°
Maximum altitude 10:22:21 11° 219° (SW) 1,682 9.7 7.4°
Drops below altitude 10° 10:23:26 10° 203° (SSW) 1,731 10.0 7.5°
Sets 10:27:04 0° 166° (SSE) 2,567 12.2 7.7°
